DELTA 1 DEB, 7079

Orbit data source: Space-Track

DELTA 1 DEB, 7079 is space debris in SSO originally from a launch on Tue, 06 Nov 1973 UTC launched from the Air Force Western Test Range (AFWTR). Debris objects in space refer to the collection of defunct objects orbiting the Earth. Examples of debris include non-operational satellites, rocket bodies, and fragments generated from explosions, collisions, or faulty payload assembly.

Loading next visibility...
Identifier
7079, 1973-086BX
Orbit
SSO
Country
Flag of USUS
Related business
Manufacturer
Unknown
Mission
Spacecraft
Bus & Motor
Unknown
Mass
Unknown
Launch date (UTC)
1973-11-06 (52 years ago)
Launch vehicle
Unknown
Launch site
Air Force Western Test Range (AFWTR)
Object type
Payload
Rocket body
Debris
Shape & HBR
Unknown shape, 0.3 m
Radar Cross Section
Medium (>0.1 m² and <1 m²)

Expand to show TLE details & history
Last TLE update: 15 hours ago

TLE from 15 hours ago
0 DELTA 1 DEB
1  7079U 73086BX  26122.40256424 -.00000074  00000-0 -24148-3 0  9992
2  7079 101.9123  89.6766 0038404 289.1158 193.1636 12.34191475357435
Epoch: 2026-05-02T09:39Z
TLE epoch observation values (Epoch: 2026-05-02T09:39:41.550Z)
Latitude
56.0027°
Longitude
-77.43159°
Altitude
1,570.026 km
Speed
7.075 km/s
True Right ascension
19h 11m 15s
True Declination
55° 51' 34"
Sunlit
Object was in daylight at epoch
Visualization orbit readout
Latitude
Unknown
Longitude
Unknown
Altitude
Unknown
Speed
Unknown
Apparent Right ascension
Unknown
Apparent Declination
Unknown
Sunlit
N/A
Visualization observer readout
Local Sidereal Time
08:19:05
Azimuth
Unknown
Elevation
Unknown
Doppler factor
Unknown
Orbital elements
Apogee altitude
1,559.266 km
Perigee altitude
1,498.534 km
Semi-major axis
7,907.037 km
Eccentricity
0.00384
Inclination
101.9123°
RAAN
89.6766°
Arg. of periapsis
289.1158°
True anomaly
193.06385°
Mean anomaly
193.1636°
Eccentric anomaly
193.11368°
Mean motion
3.0869 °/min
Orbital period
116.62 mins
BSTAR
-0.00024148
Loading maneuver chart data...
Computing Atmospheric mass density...
Loading historical data...
Loading historical data...
Loading historical data...
Loading historical data...
Loading historical data...
Loading historical data...
Loading historical data...

Documentation

Showing up to 5 results
|